Wetbulb
67.98 68.22 69.09 69.26 70.42 72.75 72.04 74.06 73.59 74.67 75.00 74.40 75.30 74.68 74.50 74.66 74.98 74.53 74.66 74.61 73.36 74.21 73.76 73.13 72.84 74.08 75.05 73.31 72.82 71.86 70.75 70.94 67.83 69.66 71.48 72.11 72.97 72.95 72.99 74.31 74.37 74.74 74.24
70.21 69.15 68.42 69.37 69.69 70.71 72.62 73.03 72.86 73.71 74.84 74.08 74.35 74.72 74.67 74.58 74.99 74.13 73.34 73.40 73.28 72.99 73.37 73.02 72.82 72.93 73.44 74.44 73.22 70.61 70.63 70.50 68.50 67.34 69.89 70.31 71.47 72.88 71.70 71.29 72.86 73.24 73.34
68.67 69.14 69.82 69.89 69.90 69.35 71.52 72.24 72.31 73.80 74.01 73.69 73.86 74.16 74.45 75.00 74.57 74.61 74.22 73.85 73.88 73.71 73.97 73.36 73.31 73.47 72.60 72.50 72.90 71.63 70.37 70.69 70.19 68.93 69.32 70.07 71.05 71.58 71.38 69.23 69.29 69.43 70.00
67.82 68.69 68.58 69.08 69.35 68.84 68.92 68.48 69.01 69.84 70.71 72.15 73.84 73.59 73.87 74.54 75.08 74.84 73.88 74.26 74.15 73.99 74.08 73.51 73.61 73.22 73.11 73.04 72.54 72.57 72.15 70.14 69.32 68.79 67.87 67.10 68.79 71.11 70.66 69.22 68.21 69.87 69.46
66.71 68.02 68.51 69.04 67.89 67.90 67.97 68.44 68.47 68.43 67.99 69.84 70.31 71.58 72.45 72.52 72.08 72.85 73.39 73.09 73.02 72.71 73.11 73.66 73.57 72.48 69.63 71.21 72.12 72.61 72.25 69.52 68.52 67.90 66.51 66.94 67.38 67.44 67.34 68.60 68.07 69.08 69.25
66.64 68.01 67.59 67.57 66.46 66.30 66.71 66.78 67.16 67.66 67.50 68.52 69.02 69.76 70.10 71.10 64.79 64.34 69.94 73.37 73.39 72.91 72.45 72.44 73.21 70.15 69.46 65.69 66.49 66.94 70.94 71.44 68.59 67.85 66.97 66.42 67.46 69.15 70.31 68.29 67.55 66.40 65.82
65.69 66.33 67.35 67.20 66.38 66.08 66.22 66.76 66.28 67.15 67.61 67.34 68.11 68.26 69.14 70.35 62.59 61.71 63.46 71.46 70.56 69.50 70.10 70.16 71.94 72.03 69.84 72.50 65.66 64.27 65.28 65.24 67.36 72.10 70.34 70.23 70.40 71.81 72.10 70.32 68.78 68.59 68.17
64.26 65.01 65.37 65.55 65.62 65.75 65.34 65.13 65.41 65.70 66.09 66.04 67.00 67.00 65.73 66.71 60.50 59.53 61.82 68.24 69.56 68.57 68.98 69.22 69.97 71.59 72.28 72.26 72.90 72.19 71.75 72.27 70.90 70.84 72.21 72.93 73.15 74.28 73.51 72.80 71.48 70.35 69.56
61.86 63.92 65.33 65.64 65.29 65.80 66.79 67.19 66.80 65.98 65.48 65.28 66.22 67.72 67.31 66.94 58.79 57.17 61.12 67.89 67.13 67.25 68.35 68.69 69.36 69.80 64.34 59.88 70.73 71.29 71.95 72.48 66.14 62.77 63.50 63.16 62.98 62.53 66.91 71.89 69.52 67.14 64.97
62.47 63.17 65.12 66.58 65.98 66.00 66.29 67.37 67.34 66.78 67.33 67.71 67.82 67.99 64.89 67.52 59.51 56.43 59.05 67.69 66.43 66.88 67.09 67.92 62.05 66.03 59.85 57.72 67.68 69.80 70.61 70.74 73.20 72.91 70.78 66.85 63.81 67.34 60.92 70.77 71.56 68.03 67.26
62.62 64.34 64.36 65.79 66.30 67.18 67.95 68.93 67.82 67.20 67.20 67.32 67.58 66.85 66.26 66.51 65.99 53.55 54.64 69.17 68.08 65.88 65.68 65.80 67.45 56.81 54.82 53.19 54.82 67.90 68.84 67.16 69.18 72.07 73.28 74.10 71.84 71.73 71.30 69.83 71.75 70.85 68.77
61.95 61.79 61.91 63.38 64.51 65.11 67.50 68.00 68.23 68.25 68.02 67.48 64.35 63.54 62.66 61.57 55.71 55.18 54.82 57.18 60.40 66.39 65.62 66.45 64.14 51.74 50.47 51.01 53.73 55.36 53.73 55.69 66.57 68.64 67.52 68.80 68.36 68.98 70.77 71.62 71.66 72.24 72.45
61.36 61.42 61.76 62.18 62.34 65.12 65.35 65.53 65.14 66.13 65.40 64.62 62.90 63.20 63.38 63.25 59.70 52.44 51.92 53.01 55.23 63.48 63.95 57.98 53.16 50.45 49.74 53.37 51.90 51.54 52.08 62.69 63.26 64.66 65.51 66.44 67.33 70.16 69.88 71.01 71.88 72.25 71.81
60.19 60.28 61.24 61.50 61.71 61.65 62.40 64.50 63.69 63.11 62.68 62.85 63.24 63.03 63.33 62.72 61.32 61.12 60.52 59.48 56.05 59.13 57.18 58.81 56.27 54.07 52.05 55.14 57.63 59.63 61.99 62.97 63.33 63.83 64.81 66.59 68.72 68.71 67.55 68.62 67.38 67.02 66.09
59.63 59.95 60.28 60.55 61.40 61.68 61.07 62.71 64.28 64.83 61.20 62.97 62.81 62.96 62.40 61.96 60.14 51.82 54.67 61.33 60.58 53.91 55.61 59.74 60.11 59.63 60.34 61.17 61.29 61.51 62.56 63.96 63.74 64.13 64.25 65.24 66.39 66.98 66.66 67.43 67.04 66.45 63.49
58.84 58.63 58.36 59.29 60.12 60.77 60.42 61.45 50.38 49.85 46.63 45.76 46.12 55.13 59.29 48.57 44.11 43.94 43.76 43.40 43.40 44.22 59.14 60.15 58.73 58.42 58.63 58.03 58.36 58.62 59.33 59.84 60.96 62.31 63.10 64.08 64.36 65.17 64.95 65.91 65.75 64.83 63.04
57.92 58.19 59.66 58.91 60.88 61.40 61.89 60.62 60.65 55.58 45.69 44.85 45.21 44.63 44.83 48.11 42.66 42.68 42.31 42.64 43.04 46.05 60.42 60.87 60.07 60.14 59.46 58.65 58.90 59.01 58.58 59.27 61.08 60.90 60.69 61.21 61.87 63.21 64.00 64.63 64.42 64.31 63.86
57.96 50.82 59.56 59.51 60.31 60.89 61.62 61.74 61.67 60.78 60.07 60.79 48.34 47.92 41.76 41.41 41.95 41.59 41.19 43.50 57.67 55.17 59.67 59.21 59.46 59.55 58.10 57.01 57.37 58.43 59.06 59.37 60.10 60.38 60.81 61.02 61.45 61.27 61.99 62.65 63.17 63.26 63.21
57.61 57.33 58.03 59.45 59.48 58.54 60.96 60.92 60.55 60.35 59.85 60.68 63.08 52.41 45.87 40.98 41.95 42.26 43.15 59.47 60.16 59.99 59.76 57.58 58.74 57.00 56.80 57.11 57.57 58.84 58.90 58.52 58.98 60.23 60.59 60.52 60.95 61.13 60.91 60.99 61.76 57.44 59.76
59.42 54.07 54.22 57.30 57.34 57.91 58.31 58.46 58.86 59.98 60.32 59.44 59.44 60.66 62.47 55.72 60.26 61.66 61.35 60.80 59.21 58.14 58.66 57.00 57.95 57.99 57.66 59.51 59.52 59.08 58.72 58.28 58.58 58.38 58.59 59.58 60.75 61.14 60.84 61.30 61.68 61.60 61.69
59.45 59.42 52.37 57.58 56.20 55.75 55.92 56.26 57.10 57.99 58.91 58.81 60.09 59.61 46.77 60.28 60.28 60.35 60.72 60.65 59.95 59.81 59.53 58.42 57.95 56.94 57.09 58.07 59.85 59.26 59.03 58.00 58.97 59.76 58.92 58.38 58.32 57.96 60.00 61.25 61.49 61.70 61.83
58.62 59.87 58.48 57.35 56.43 55.72 55.58 55.79 56.13 56.89 57.68 58.88 59.56 59.80 43.56 57.98 60.39 60.41 60.70 60.94 61.08 60.96 60.70 60.17 58.43 57.53 57.38 59.23 59.89 58.47 57.18 56.19 57.40 57.47 58.17 58.74 59.00 59.27 58.25 57.35 58.67 60.50 62.99
59.70 59.15 57.92 57.38 56.80 53.66 56.34 56.24 55.31 55.60 56.55 57.44 58.45 59.59 59.48 59.29 59.95 60.28 60.39 60.63 61.03 60.87 61.13 59.81 58.49 57.38 60.18 60.72 60.68 60.16 58.72 58.33 58.10 57.78 57.50 58.04 57.79 57.64 58.04 57.37 57.11 56.57 56.70
58.73 58.10 57.68 57.28 56.81 55.47 56.53 56.80 57.06 51.89 55.57 57.03 57.71 58.36 59.65 60.28 60.34 60.56 60.95 60.82 61.06 61.10 61.37 60.89 59.92 59.37 60.54 60.91 60.99 60.86 60.58 60.13 58.11 58.38 58.72 58.49 59.39 57.65 56.76 55.54 55.62 55.38 55.60
58.16 57.43 56.80 56.37 56.17 56.76 56.96 56.92 56.87 57.05 56.70 56.53 56.46 57.13 58.29 59.47 59.96 60.63 61.20 61.38 60.99 60.82 60.83 60.84 60.77 59.61 60.46 60.93 58.51 58.82 54.26 38.14 48.68 45.75 56.68 58.67 59.54 58.84 58.17 54.47 54.17 54.40 55.29
57.61 57.51 57.55 57.53 57.01 57.04 56.90 56.56 56.64 56.79 56.62 56.67 57.04 57.38 57.46 57.50 58.14 59.01 59.75 60.28 60.64 60.46 60.35 60.40 60.63 60.33 60.51 60.79 60.03 52.33 42.35 36.19 44.83 36.31 52.55 55.67 58.37 58.57 57.97 57.03 54.33 53.02 52.75
MSLP
1006.67 1006.38 1006.47 1006.26 1006.94 1006.70 1007.04 1007.07 1007.39 1007.17 1007.38 1008.05 1008.92 1009.08 1009.54 1009.39 1009.38 1010.23 1011.30 1011.94 1012.43 1012.85 1013.02 1013.27 1013.26 1013.62 1013.86 1013.99 1014.14 1014.42 1014.68 1014.99 1014.92 1014.59 1014.66 1014.53 1014.54 1014.31 1014.23 1014.24 1014.16 1014.14 1014.15
1005.93 1006.10 1005.81 1005.26 1005.92 1005.83 1005.98 1006.33 1006.87 1006.82 1007.55 1007.20 1007.78 1008.16 1008.23 1008.60 1008.43 1008.86 1009.92 1010.76 1011.41 1011.80 1011.98 1012.40 1012.58 1012.83 1013.06 1013.21 1013.66 1014.04 1014.29 1014.59 1014.82 1014.51 1014.46 1014.28 1014.24 1014.15 1014.35 1014.50 1014.14 1014.28 1014.29
1005.72 1005.45 1005.19 1005.22 1005.25 1005.60 1005.77 1006.13 1006.29 1006.31 1006.01 1006.52 1007.20 1007.80 1007.03 1007.51 1007.60 1007.60 1008.29 1009.43 1010.40 1010.89 1011.02 1011.36 1011.64 1012.11 1012.38 1012.63 1013.12 1013.38 1013.86 1014.01 1014.45 1014.34 1013.94 1014.14 1014.10 1014.01 1013.99 1014.50 1014.58 1014.47 1014.39
1005.17 1005.14 1005.12 1004.86 1005.18 1005.72 1006.19 1006.50 1006.57 1006.59 1006.40 1006.66 1007.04 1006.97 1006.85 1007.14 1007.01 1007.07 1007.30 1007.97 1009.43 1010.12 1010.38 1010.56 1010.73 1011.18 1011.62 1012.01 1012.41 1012.61 1012.85 1013.33 1013.85 1014.05 1014.02 1014.01 1013.89 1013.71 1013.85 1013.94 1014.29 1014.35 1014.27
1004.77 1004.51 1005.13 1005.42 1005.78 1006.12 1006.17 1006.43 1006.43 1006.18 1006.64 1006.96 1007.25 1006.97 1007.10 1006.50 1007.27 1007.27 1006.89 1007.11 1008.57 1009.46 1009.81 1010.03 1010.15 1010.50 1011.08 1011.30 1011.54 1011.92 1012.16 1012.85 1013.31 1013.70 1013.67 1013.66 1013.53 1013.56 1013.63 1013.61 1013.71 1013.69 1013.89
1004.15 1004.52 1005.60 1005.49 1005.88 1005.75 1005.19 1005.90 1006.19 1006.34 1006.58 1006.91 1006.81 1006.79 1006.86 1006.34 1006.74 1007.13 1006.31 1006.80 1008.06 1009.00 1009.35 1009.69 1009.67 1009.96 1010.66 1011.02 1011.14 1011.48 1011.56 1011.99 1012.37 1012.70 1012.89 1012.90 1012.83 1012.84 1012.80 1013.00 1013.24 1013.48 1013.17
1004.38 1004.50 1004.92 1005.21 1004.90 1004.87 1005.07 1005.27 1005.38 1005.64 1006.14 1006.33 1006.57 1006.56 1006.31 1006.29 1006.36 1006.66 1006.68 1006.95 1008.52 1008.71 1009.05 1009.23 1009.24 1009.52 1009.96 1010.06 1010.55 1011.14 1011.46 1011.44 1011.48 1011.65 1011.66 1011.59 1011.70 1011.58 1012.02 1012.40 1012.65 1012.64 1012.38
1004.48 1004.90 1004.85 1004.78 1004.99 1004.96 1004.79 1004.55 1004.86 1004.52 1004.50 1004.98 1005.58 1005.43 1005.76 1005.71 1006.00 1005.92 1006.24 1007.85 1008.69 1008.51 1008.60 1008.86 1009.00 1009.37 1009.15 1009.35 1009.78 1010.11 1010.41 1010.61 1010.94 1011.00 1010.79 1010.58 1010.91 1011.10 1011.39 1011.55 1011.78 1012.09 1012.37
1005.54 1005.55 1005.49 1005.41 1005.31 1005.22 1005.36 1005.35 1005.34 1005.33 1005.30 1005.27 1005.34 1005.23 1005.42 1006.34 1006.52 1006.66 1007.49 1007.85 1008.21 1008.12 1008.35 1008.77 1008.91 1008.93 1008.43 1009.38 1009.44 1009.62 1009.56 1009.45 1009.49 1009.92 1010.03 1010.04 1010.32 1010.56 1010.79 1011.10 1011.17 1011.46 1011.68
1006.01 1005.76 1005.67 1005.66 1005.61 1005.30 1005.62 1005.88 1005.64 1005.46 1005.08 1005.07 1004.97 1005.00 1005.64 1005.89 1005.89 1006.26 1007.31 1007.47 1007.69 1008.03 1007.93 1008.20 1008.82 1008.48 1008.78 1009.18 1009.38 1009.38 1009.17 1008.71 1009.09 1009.42 1010.10 1010.34 1010.10 1010.11 1010.69 1010.71 1010.17 1010.34 1010.31
1006.40 1005.99 1005.96 1005.84 1005.86 1005.58 1005.80 1005.48 1005.24 1005.11 1004.97 1004.85 1005.34 1005.68 1005.82 1005.69 1005.76 1006.58 1006.94 1006.94 1007.03 1007.73 1007.97 1008.12 1008.18 1008.25 1008.63 1008.77 1009.14 1009.15 1009.24 1009.28 1008.85 1008.86 1009.10 1009.13 1008.95 1009.05 1009.33 1009.77 1009.68 1009.25 1009.13
1007.07 1006.53 1006.22 1005.66 1005.67 1005.96 1005.81 1005.47 1005.19 1005.18 1005.20 1005.38 1005.90 1006.21 1006.31 1006.72 1006.70 1006.97 1007.25 1007.56 1007.53 1007.51 1007.90 1008.40 1008.56 1008.16 1007.98 1008.06 1008.43 1008.61 1009.08 1009.51 1009.32 1008.88 1009.13 1008.75 1008.55 1008.22 1008.10 1008.53 1008.91 1008.79 1008.47
1007.23 1006.89 1006.54 1006.37 1006.24 1006.08 1005.90 1005.88 1005.86 1006.18 1005.90 1006.31 1006.29 1006.60 1007.02 1007.26 1007.84 1007.87 1007.90 1008.08 1008.11 1008.00 1008.06 1008.25 1008.43 1008.32 1008.46 1008.51 1008.34 1008.31 1008.72 1008.89 1008.86 1009.00 1008.39 1008.18 1008.10 1007.63 1007.93 1008.03 1008.28 1008.22 1008.30
1007.21 1007.05 1006.75 1006.55 1006.50 1006.42 1006.30 1006.15 1006.03 1006.09 1006.18 1006.26 1006.60 1006.94 1006.93 1007.41 1007.76 1007.82 1008.26 1008.40 1008.36 1008.24 1008.65 1008.65 1008.51 1008.05 1008.11 1008.19 1008.26 1008.13 1007.93 1008.00 1008.08 1008.18 1008.06 1007.73 1007.50 1007.44 1007.32 1007.68 1008.05 1008.02 1008.09
1007.10 1007.09 1006.87 1006.77 1006.73 1006.51 1006.67 1006.71 1006.30 1006.46 1006.65 1006.69 1006.68 1006.91 1007.25 1007.55 1008.19 1008.52 1008.47 1008.24 1008.18 1008.61 1008.54 1008.34 1007.96 1007.83 1007.68 1007.73 1007.88 1007.92 1008.06 1007.72 1007.50 1007.53 1007.37 1007.21 1007.08 1006.73 1006.28 1006.57 1006.96 1007.20 1007.23
1007.34 1006.97 1006.98 1006.73 1006.41 1006.42 1006.18 1006.43 1007.01 1007.17 1007.43 1007.54 1007.68 1007.55 1008.14 1008.50 1009.02 1008.87 1008.99 1009.00 1009.06 1009.11 1008.30 1008.12 1008.16 1008.14 1007.99 1007.96 1007.78 1007.71 1007.56 1007.53 1007.36 1007.12 1006.79 1006.51 1006.18 1005.90 1005.82 1005.92 1006.18 1006.29 1006.29
1008.24 1007.91 1007.39 1007.11 1006.68 1006.48 1006.15 1006.30 1006.78 1007.67 1007.92 1008.33 1008.29 1008.38 1008.55 1008.70 1009.26 1009.09 1009.51 1009.51 1009.20 1008.92 1008.48 1008.11 1007.92 1007.69 1007.63 1007.63 1007.55 1007.40 1007.25 1007.05 1007.10 1006.76 1006.53 1006.20 1005.88 1005.52 1005.21 1005.14 1005.20 1005.31 1005.33
1008.50 1008.29 1007.89 1007.61 1007.24 1006.89 1006.80 1006.69 1006.44 1006.65 1007.20 1007.44 1008.18 1008.44 1008.84 1009.03 1009.23 1009.41 1009.69 1009.60 1009.08 1008.98 1008.45 1008.05 1007.69 1007.53 1007.63 1007.72 1007.57 1007.20 1006.97 1006.74 1006.51 1006.14 1005.98 1005.81 1005.55 1005.14 1004.65 1004.37 1004.48 1004.33 1004.23
1008.45 1008.20 1007.99 1007.65 1007.42 1007.32 1007.06 1006.84 1006.87 1006.86 1006.83 1006.83 1007.18 1008.19 1008.85 1009.13 1009.27 1009.28 1009.21 1008.62 1008.02 1007.78 1007.88 1007.80 1007.69 1007.91 1007.89 1007.80 1007.27 1006.87 1006.68 1006.65 1006.43 1005.78 1005.41 1005.24 1004.91 1004.49 1003.94 1003.86 1003.77 1003.57 1003.39
1008.26 1008.27 1008.10 1007.80 1007.45 1007.12 1006.86 1006.62 1006.41 1006.35 1006.62 1006.66 1006.76 1007.10 1007.44 1008.32 1008.05 1007.75 1007.86 1007.94 1007.67 1007.43 1007.27 1007.45 1007.38 1007.39 1007.80 1007.46 1007.03 1006.52 1006.41 1006.08 1005.95 1005.61 1005.17 1004.79 1004.28 1003.80 1003.42 1003.09 1002.85 1002.61 1002.51
1008.26 1008.13 1008.09 1007.62 1007.43 1007.34 1007.06 1006.82 1006.61 1006.48 1006.24 1006.20 1006.60 1006.89 1007.62 1007.71 1007.15 1007.10 1007.17 1006.74 1006.46 1006.57 1006.61 1006.80 1006.97 1007.08 1007.16 1007.08 1006.74 1006.29 1006.07 1005.89 1005.42 1005.03 1004.90 1004.44 1004.10 1003.57 1003.04 1002.55 1002.12 1001.70 1001.54
1008.10 1007.93 1007.81 1007.65 1007.54 1007.24 1007.08 1006.86 1006.61 1006.35 1006.28 1006.21 1006.12 1006.49 1007.51 1007.52 1006.86 1006.41 1006.01 1005.88 1005.93 1006.09 1006.18 1006.32 1006.55 1006.55 1006.59 1006.47 1006.10 1006.08 1005.88 1005.52 1005.31 1005.01 1004.71 1004.43 1003.89 1003.40 1003.00 1002.57 1002.00 1001.19 1000.62
1007.89 1007.69 1007.44 1007.32 1007.31 1007.25 1006.83 1006.67 1006.42 1006.30 1006.17 1006.07 1005.94 1005.88 1006.26 1006.35 1005.96 1005.67 1005.42 1005.15 1005.22 1005.27 1005.38 1005.83 1005.91 1005.99 1005.68 1005.62 1005.53 1005.39 1005.08 1005.09 1005.12 1004.87 1004.47 1004.11 1003.59 1003.29 1002.83 1002.41 1001.89 1001.37 1000.78
1007.84 1007.81 1007.71 1007.63 1007.52 1007.48 1007.07 1006.82 1006.58 1006.45 1006.35 1005.89 1005.57 1005.23 1005.02 1004.87 1004.59 1004.27 1004.31 1004.26 1004.56 1004.90 1005.08 1004.96 1005.03 1005.06 1004.91 1004.90 1004.70 1004.59 1004.51 1004.65 1004.86 1004.55 1004.10 1003.77 1002.91 1002.85 1002.64 1002.32 1001.89 1001.40 1000.89
1007.94 1007.91 1007.77 1007.64 1007.56 1007.38 1007.16 1006.93 1006.63 1006.37 1006.05 1005.71 1005.43 1005.07 1004.59 1004.28 1004.01 1003.84 1003.83 1004.09 1004.14 1004.08 1003.99 1003.98 1003.96 1004.25 1004.31 1004.22 1004.35 1004.21 1004.03 1004.59 1004.72 1004.33 1003.92 1003.37 1002.65 1002.43 1002.12 1002.10 1001.81 1001.35 1000.67
1008.20 1008.13 1007.92 1007.83 1007.66 1007.51 1007.25 1007.03 1006.71 1006.38 1006.03 1005.79 1005.58 1005.22 1004.90 1004.61 1004.32 1004.12 1003.88 1003.80 1003.71 1003.38 1003.19 1003.06 1002.96 1003.02 1003.15 1003.15 1003.20 1003.50 1003.70 1003.82 1003.80 1003.96 1003.49 1003.05 1002.28 1001.71 1001.82 1001.74 1001.73 1001.35 1000.95
Wind_Speed
11 10 11 11 12 12 10 14 15 16 16 16 17 16 17 16 16 15 13 13 13 14 12 13 13 12 7 9 8 7 8 7 7 8 6 6 8 7 6 6 2 3 3
12 13 13 14 14 14 15 16 14 14 14 16 15 17 17 17 16 16 15 14 14 16 15 14 14 10 12 10 8 9 8 7 6 10 7 6 7 4 3 4 1 2 1
8 14 13 14 14 14 12 12 13 15 17 16 15 16 16 16 16 16 15 15 14 16 15 15 14 13 12 9 10 9 8 6 7 7 7 4 5 4 2 1 2 2 2
8 13 13 12 10 11 8 8 10 11 12 15 16 15 14 12 14 13 13 12 12 13 14 14 13 13 13 12 11 12 9 7 7 7 5 4 6 4 4 3 4 4 4
9 14 12 8 6 5 6 8 10 8 5 10 9 8 9 9 8 12 12 11 13 13 12 14 13 13 13 12 9 11 9 8 7 6 5 5 6 4 6 4 6 4 4
9 12 10 7 6 4 2 5 9 9 9 10 10 10 8 5 5 6 5 11 12 13 12 11 12 13 12 13 13 9 10 11 10 7 6 7 10 7 7 6 5 4 3
5 2 5 6 9 4 6 7 5 4 4 6 7 8 9 9 10 9 5 2 6 7 6 8 8 9 13 12 13 11 11 14 13 10 11 11 10 9 8 7 7 7 7
9 6 3 3 5 4 4 6 6 5 5 4 6 4 2 1 5 7 9 10 9 8 6 7 7 9 11 10 11 11 14 14 15 13 14 13 12 9 8 8 7 7 5
6 3 3 1 4 3 5 6 5 4 5 5 6 8 6 7 11 10 11 9 8 8 6 4 4 7 3 6 7 12 13 12 11 15 14 8 7 6 7 6 7 7 5
5 6 6 5 3 2 6 6 4 4 4 4 6 5 7 8 11 16 13 6 4 2 4 7 13 6 3 6 4 8 10 12 10 10 11 12 12 11 11 13 9 9 8
4 6 6 6 6 5 2 2 2 0 2 5 5 5 5 2 3 7 9 7 7 5 3 4 5 8 7 7 10 4 9 5 6 7 7 7 9 10 9 11 13 12 11
5 6 7 8 6 5 5 5 5 4 5 6 6 6 6 7 11 7 5 2 2 5 5 4 4 4 5 7 8 9 8 5 4 5 4 7 7 7 9 10 13 14 13
5 6 5 6 5 5 6 6 6 5 6 6 5 5 6 6 6 9 10 8 11 3 4 3 2 3 2 3 7 8 6 3 3 5 7 8 7 9 8 7 11 13 15
7 6 5 5 4 4 3 3 5 5 5 5 5 4 4 5 5 4 3 3 4 3 1 2 4 3 4 4 4 3 3 5 6 9 9 9 6 5 7 7 8 8 7
8 6 5 3 3 3 4 2 3 4 4 5 5 4 4 4 4 5 5 3 3 4 3 1 2 2 2 2 2 3 5 6 7 7 9 9 9 8 8 7 8 8 9
7 6 5 5 4 4 4 4 8 8 9 9 9 3 4 7 8 5 3 3 1 2 1 2 1 1 2 3 3 4 4 6 6 7 7 8 8 7 7 7 8 9 9
6 6 4 5 6 6 6 5 3 5 8 6 6 7 7 7 6 5 4 2 2 4 3 1 2 2 2 2 3 4 5 5 7 6 7 7 8 8 8 9 8 10 10
4 3 3 4 5 5 5 5 5 4 3 1 5 2 7 6 6 5 5 5 5 6 2 4 4 4 5 5 5 6 6 6 6 6 7 7 8 8 8 8 8 10 10
4 4 4 4 4 4 4 4 4 4 4 4 1 5 7 7 7 6 6 6 5 5 3 4 3 4 4 5 5 5 5 5 7 7 7 7 8 8 8 9 10 12 12
3 3 3 3 4 4 5 5 5 4 3 4 4 3 2 5 5 5 5 5 5 5 5 4 4 3 4 6 5 4 4 5 5 5 6 7 7 8 9 9 10 11 11
2 2 2 3 4 5 5 5 5 5 6 5 5 2 3 5 5 5 5 5 5 5 5 5 6 4 4 6 6 5 5 5 6 7 6 6 7 8 8 9 10 11 11
3 3 3 4 4 5 6 6 6 6 5 7 6 4 5 5 6 7 6 6 6 5 5 6 6 6 6 6 5 5 5 5 6 6 7 8 8 7 7 7 9 10 12
3 3 4 5 5 6 7 8 7 7 7 8 8 8 7 7 7 8 8 7 6 6 6 7 7 7 8 7 7 6 6 5 5 6 7 7 5 6 8 8 8 9 9
4 5 5 6 5 7 7 8 8 8 8 9 9 9 10 9 9 9 9 7 7 7 8 7 8 11 10 9 7 7 7 6 5 7 8 8 8 7 6 6 7 9 9
4 5 5 6 6 6 7 7 8 8 8 8 8 8 9 9 9 10 9 8 9 9 10 9 9 11 14 14 11 11 9 4 7 7 7 9 9 9 7 4 5 6 10
5 5 5 5 5 6 7 7 8 8 8 8 8 8 8 8 8 8 8 9 10 10 11 9 10 14 15 14 14 12 6 7 6 7 5 8 8 7 6 6 6 5 8
Wind_Direction
231 235 222 213 217 210 218 219 223 207 199 208 215 213 220 213 203 209 222 223 219 235 224 234 235 233 218 225 232 220 222 229 251 269 255 260 275 271 281 276 234 235 244
249 232 228 242 228 224 210 200 203 221 222 214 213 214 210 218 206 202 212 226 223 229 229 228 230 228 229 225 215 217 221 213 222 252 250 254 255 258 282 299 269 159 194
241 257 249 232 220 218 215 208 211 207 204 206 210 224 207 211 208 199 201 211 221 227 223 218 221 219 222 214 222 214 215 206 220 241 258 259 267 255 206 198 221 236 211
243 235 235 235 216 192 208 239 241 237 238 232 228 215 211 217 214 202 204 200 220 226 225 217 214 208 218 213 218 219 216 212 216 228 237 242 253 248 254 236 227 220 221
231 227 227 214 196 196 177 212 228 222 238 231 223 221 210 182 210 204 199 190 212 224 220 220 210 207 212 213 214 215 211 215 216 220 232 241 249 224 230 226 251 237 236
197 209 222 258 263 250 299 237 219 202 200 221 211 204 189 183 162 217 194 194 215 227 213 213 217 192 211 205 210 226 209 208 218 215 219 227 243 239 233 221 227 218 245
77 155 236 266 297 3 283 262 254 236 206 196 213 203 202 205 177 161 150 196 235 218 224 209 203 214 213 211 207 224 218 218 225 216 229 227 240 229 235 220 223 235 245
57 27 15 307 285 287 296 308 293 315 300 266 249 254 218 114 210 202 186 201 231 222 204 230 213 228 208 213 221 220 223 223 226 228 235 241 236 240 226 226 229 233 251
66 72 67 353 284 296 279 273 265 230 215 235 258 240 213 218 214 220 194 206 210 199 165 154 222 246 284 229 250 255 243 237 213 219 241 250 251 236 238 230 221 212 214
53 53 60 58 28 144 207 228 242 253 251 238 233 224 211 222 216 214 203 197 192 210 175 183 211 215 224 197 233 282 256 257 244 228 226 247 246 236 201 229 236 229 228
27 61 55 69 78 64 132 216 181 180 51 64 67 41 30 310 239 197 193 191 174 168 194 217 226 171 199 185 199 243 272 339 306 263 252 240 229 219 219 220 232 236 239
50 52 47 43 41 53 77 66 50 36 53 64 58 52 51 43 36 56 57 90 195 155 170 180 180 51 110 146 169 200 236 278 273 269 251 259 253 249 247 231 229 236 242
47 51 57 70 54 34 53 70 94 88 85 95 78 64 67 76 75 65 68 45 27 24 22 30 341 332 328 212 202 193 191 221 228 245 248 258 246 247 238 248 241 237 243
28 37 51 67 57 48 65 82 87 84 84 89 100 111 104 114 119 114 116 108 97 103 260 275 324 323 278 285 307 257 213 214 222 232 238 251 259 218 230 225 224 227 228
10 11 33 56 61 87 74 41 94 83 49 91 90 94 105 108 87 58 27 50 35 46 283 111 30 27 324 305 288 276 273 261 233 235 243 242 240 231 226 215 223 223 221
350 3 10 358 15 25 35 81 49 51 41 29 21 23 101 67 130 130 90 68 23 264 219 42 62 349 303 308 299 287 282 273 267 273 261 258 251 238 238 223 217 219 216
355 359 16 14 23 20 27 26 43 116 104 94 69 50 356 150 166 151 168 168 314 289 292 311 307 307 314 300 294 293 292 287 278 270 267 269 259 259 238 240 224 215 224
9 58 28 20 21 23 29 33 33 24 344 302 132 140 119 140 178 177 206 211 213 218 320 308 307 339 344 325 314 305 300 294 275 267 267 260 255 257 258 242 236 236 233
25 24 8 9 26 17 33 39 33 35 18 17 100 168 155 181 205 218 222 266 305 304 304 287 309 294 299 304 301 305 302 300 301 292 272 271 267 254 249 248 255 249 236
34 38 346 0 10 8 8 355 347 351 334 350 343 342 147 191 222 228 224 240 260 265 270 267 275 285 293 293 311 316 309 307 309 313 318 310 291 269 260 258 247 244 242
331 4 12 360 11 359 341 334 332 327 309 315 312 338 344 285 292 280 273 268 269 270 262 254 264 255 268 286 294 309 304 320 321 329 325 317 317 308 301 273 261 250 244
291 309 333 332 332 331 334 313 301 300 304 289 282 260 178 250 268 272 269 265 259 254 257 250 256 261 257 256 278 277 281 301 311 319 313 315 318 319 317 314 306 274 262
284 302 312 316 324 327 321 329 312 298 291 291 286 272 223 239 242 250 256 258 257 259 253 251 250 246 246 246 249 260 282 291 295 299 312 306 310 322 324 313 314 312 306
317 315 313 313 316 315 313 323 315 300 282 292 290 282 266 257 256 250 249 252 250 249 250 247 242 244 250 248 262 263 260 257 278 288 306 296 308 326 334 330 329 330 317
350 336 327 331 328 329 324 321 321 320 318 321 317 309 300 297 287 283 274 259 246 245 244 242 243 243 248 248 245 252 260 207 250 295 279 294 300 308 312 299 317 324 336
-0 357 350 342 340 334 329 323 325 327 334 340 338 338 330 321 312 307 303 293 275 264 255 248 245 245 239 240 238 242 216 220 247 229 267 282 290 306 338 308 329 325 317